STARLINK-35768

Last updated on Mon Dec 15 2025 00:02:12 GMT+0000 (Coordinated Universal Time)

1 66832U 25280M 25348.25003472 -.01775701 00000+0 -13823-1 0 9994 2 66832 69.9940 194.5196 0003612 269.8577 49.8655 15.74517832 3143
UTC large
Height (km)
Speed (km/s)
/
Latitude / Longitude
Inclination (degrees)
Orbital Period (minutes)
Azimuth
Elevation
Range (km)
Doppler Factor

Next 0 passes for location: London (51.5072 / 0.1276)

Sorry there are no passes over London.